Theta_e
324 324 326 328 328 329 327 327 327 327 327 326 326 326 327 327 329 330 331 332 332 333 333 331 330 331 331 331 332 331 331 330 328 326 325 326 323 322 326 325 326 326 326 324 322 319 317 315 319 326 328 328 328 328 328 327 327 327 326 325 325 325 326
325 325 327 328 327 327 326 326 325 325 325 325 325 326 326 326 328 328 329 330 330 331 331 331 331 331 331 330 329 329 329 329 329 328 326 325 324 324 323 324 325 324 324 324 324 323 317 315 316 319 321 326 327 328 328 329 329 328 327 326 326 325 326
323 323 324 323 323 324 324 324 323 322 322 323 324 326 326 327 328 328 328 328 328 328 330 330 331 330 330 330 330 329 330 329 330 328 325 325 326 326 325 324 322 323 323 322 322 322 321 320 316 317 321 320 319 324 327 328 329 329 328 328 326 326 325
321 320 319 318 319 319 320 321 322 321 321 322 324 325 325 326 327 328 328 328 328 328 328 328 329 330 330 330 330 329 329 328 328 327 326 326 326 325 325 325 324 323 322 320 320 321 320 318 317 317 320 323 322 321 324 327 328 329 329 329 327 327 326
318 317 315 315 316 317 319 319 321 321 321 322 322 322 322 324 325 326 327 327 327 327 327 328 329 329 330 330 329 329 329 329 329 328 327 326 325 325 325 326 326 326 325 324 324 323 321 320 320 318 318 322 323 324 326 327 329 329 328 328 328 328 327
316 315 315 314 315 316 318 318 318 318 319 318 319 319 320 321 323 323 323 323 324 326 327 327 328 328 328 328 328 328 329 329 329 329 327 327 327 325 325 327 327 326 325 326 326 324 324 323 321 318 320 322 319 321 325 325 324 328 329 328 328 329 328
313 313 313 313 314 315 316 316 316 316 316 316 316 317 318 319 321 322 321 317 318 320 322 322 324 327 328 328 328 328 328 329 330 329 329 328 328 328 328 326 326 326 326 327 327 326 324 323 321 320 319 320 321 321 324 323 325 324 326 329 330 330 329
312 311 311 312 312 312 313 313 313 314 313 313 314 315 315 316 318 319 317 314 315 316 316 314 316 319 320 324 327 328 329 330 329 329 329 329 328 328 328 327 327 327 328 328 328 326 326 325 323 322 320 316 317 319 319 322 323 323 323 326 329 329 329
311 309 309 309 310 311 310 310 310 311 311 311 312 312 312 314 314 317 314 312 312 312 313 311 311 312 314 318 320 323 325 328 328 328 328 329 328 328 328 329 328 327 328 328 327 327 327 326 325 324 322 320 316 313 317 318 320 321 326 324 327 329 329
307 307 307 307 308 309 309 308 309 309 309 309 309 311 310 310 311 314 313 310 309 309 309 308 308 309 310 312 313 315 317 317 320 324 327 327 328 328 328 328 327 328 328 328 328 328 327 327 326 326 325 322 320 316 313 314 317 318 323 325 322 326 330
307 307 307 307 307 307 307 307 307 307 307 308 308 308 308 308 308 310 311 309 307 307 306 305 305 306 307 308 308 310 311 312 313 316 321 325 326 327 327 327 327 326 328 328 328 328 328 327 326 326 325 325 323 319 317 314 315 320 321 325 326 325 329
307 307 307 307 306 306 305 305 305 305 306 306 306 306 307 306 306 306 308 309 305 304 304 304 304 304 304 304 304 305 306 307 309 310 314 317 321 325 326 326 327 326 327 327 327 327 328 327 327 326 325 325 324 322 320 318 314 319 324 321 324 328 327
307 306 306 305 304 303 302 302 302 302 303 304 304 305 305 305 304 304 305 307 305 303 303 303 302 302 302 302 301 302 303 304 304 306 308 311 315 319 323 325 326 326 327 327 326 326 326 327 327 327 326 325 324 324 323 320 317 317 322 324 325 326 328
305 305 304 304 303 302 301 301 301 301 301 301 302 303 304 303 303 303 303 304 303 302 301 301 301 300 300 299 300 300 301 301 301 302 304 306 310 313 317 321 324 326 327 326 326 326 326 326 327 326 326 325 324 324 323 320 318 317 319 321 324 325 327
304 304 303 302 302 301 301 300 300 300 299 300 301 301 302 302 302 302 302 302 301 301 300 299 299 299 298 298 298 299 299 299 300 300 302 303 305 307 310 313 318 323 326 326 326 326 326 326 326 325 325 324 323 323 324 321 319 318 317 318 320 324 325
302 301 301 301 300 300 300 301 301 299 299 299 300 300 301 301 301 301 301 301 301 300 299 299 299 299 298 297 297 297 298 298 299 300 300 301 302 304 306 309 312 317 323 325 326 326 326 326 326 325 325 325 323 323 323 323 320 317 317 318 320 321 323
301 301 300 300 300 300 300 300 301 299 299 299 298 299 300 300 301 300 300 300 299 299 299 299 298 298 297 297 296 296 297 298 298 299 300 301 302 304 305 306 309 312 316 320 323 325 325 326 325 325 325 324 324 323 323 323 323 320 319 317 318 320 322
301 301 300 300 300 300 299 299 300 299 298 298 298 298 298 300 299 299 299 298 298 298 298 298 298 297 296 296 296 296 297 297 298 299 300 301 304 304 305 305 307 309 312 315 320 323 324 324 325 325 324 324 324 324 323 323 322 322 320 318 318 320 322
300 300 300 299 299 299 299 299 298 299 298 297 297 297 298 298 299 298 298 298 298 298 298 298 297 296 295 296 296 297 297 298 298 299 301 302 303 304 305 306 307 309 311 314 317 321 324 324 325 324 324 324 324 324 323 322 322 321 320 320 319 317 319
300 299 299 298 299 299 299 298 298 297 298 297 296 296 297 297 298 298 298 298 298 298 298 297 297 295 295 295 296 296 297 298 299 301 302 304 306 307 307 307 309 311 313 315 316 316 318 321 323 323 324 324 324 323 322 322 322 321 320 319 319 319 318
300 300 300 299 298 298 298 298 297 298 298 296 296 295 295 296 297 298 298 298 298 298 297 297 296 295 295 295 296 297 298 299 301 303 305 305 305 306 307 307 308 309 311 312 312 311 312 313 317 321 324 324 323 322 321 321 320 320 319 319 319 318 318
298 298 298 298 298 297 297 297 297 297 296 296 297 296 295 295 295 296 296 297 297 298 297 296 296 295 294 295 296 297 298 300 302 302 302 302 303 303 303 304 305 306 308 310 307 306 306 306 308 312 320 323 323 321 321 321 320 320 319 319 318 319 317
296 296 296 296 296 296 296 296 296 296 296 295 295 296 295 295 295 295 294 295 296 296 296 296 297 295 295 295 296 297 299 301 301 301 301 300 300 301 301 301 303 307 305 305 304 302 301 301 304 307 311 320 322 321 321 320 320 319 319 317 317 317 315
294 294 294 294 294 294 294 295 294 294 294 294 294 295 294 293 293 294 294 294 294 295 295 295 293 292 292 294 297 298 299 300 300 300 299 299 298 299 299 300 301 303 303 303 303 301 299 299 300 299 300 303 311 322 321 319 320 320 318 318 318 317 316
293 292 293 292 292 292 293 293 293 293 293 293 293 293 293 293 293 293 293 293 294 294 295 295 292 292 292 292 295 298 298 299 299 298 298 298 298 297 298 298 299 300 300 301 301 301 300 299 298 297 297 299 300 301 306 317 319 319 319 318 317 317 317
291 291 291 291 291 291 291 291 291 291 291 293 292 291 291 292 292 292 293 292 293 294 294 294 292 292 292 292 292 296 298 298 298 297 297 297 297 297 297 298 298 298 298 301 301 299 299 298 298 298 298 301 303 300 298 298 302 318 322 319 318 317 318
290 290 290 290 290 290 290 289 290 291 291 291 291 291 291 291 291 291 292 292 292 293 294 294 291 292 292 291 292 294 297 297 297 297 297 297 297 296 296 297 296 296 296 296 297 297 296 295 296 297 300 305 312 312 303 299 299 299 305 318 320 318 320
290 289 289 289 289 289 289 289 289 290 289 289 289 289 289 290 291 291 291 291 292 292 293 292 291 291 291 291 292 294 296 296 297 296 296 296 296 296 296 297 297 295 294 295 296 295 294 294 294 295 298 302 311 316 317 316 313 311 310 313 319 321 321
289 289 289 289 288 288 288 288 288 290 290 289 289 290 290 290 290 290 291 291 291 291 292 292 291 291 291 291 292 294 295 295 295 295 295 295 295 296 296 296 296 294 294 294 295 292 293 294 294 295 297 303 310 315 316 312 302 303 309 314 318 319 318
289 288 288 288 288 287 288 288 288 290 288 288 288 289 289 289 290 289 291 291 291 291 292 292 291 291 291 291 293 293 293 293 294 294 294 295 295 295 295 296 296 294 293 293 293 290 291 294 297 297 299 303 310 314 313 306 298 295 294 296 296 298 296
288 288 288 287 287 287 288 288 288 289 287 288 288 288 290 289 290 290 290 290 293 291 291 293 292 291 291 291 293 292 292 292 293 293 293 294 295 294 295 297 298 294 293 293 291 290 291 295 298 300 302 306 309 311 306 306 307 304 297 296 295 294 295
288 287 287 287 288 287 288 288 289 288 288 288 289 288 291 289 289 290 290 291 294 291 292 293 292 291 291 291 292 293 292 292 292 292 292 293 293 293 293 295 296 294 293 292 290 291 291 294 297 297 298 305 309 304 303 304 304 303 303 303 303 303 302
289 288 287 287 288 288 289 288 287 288 288 288 288 288 289 289 288 289 290 290 291 291 292 292 293 291 292 292 292 292 292 291 291 291 292 292 291 292 293 293 294 292 290 290 290 290 291 291 295 296 296 296 300 301 304 303 303 303 302 302 302 302 301
288 288 288 288 289 289 288 287 287 287 287 288 288 288 288 288 288 289 289 290 290 291 292 293 292 291 291 291 291 291 292 291 291 292 291 291 291 291 291 291 292 292 290 290 290 290 291 291 292 296 294 294 294 297 301 302 301 300 301 301 301 300 300
290 289 289 288 287 287 287 288 288 287 287 287 287 287 288 288 288 288 289 290 290 290 292 293 292 292 291 291 291 291 291 291 291 292 291 291 291 291 291 291 291 291 290 290 290 290 291 291 292 295 293 291 292 292 300 301 301 300 300 300 299 298 298
289 290 289 288 287 286 287 287 287 287 287 287 287 287 287 287 287 287 288 289 290 290 290 291 292 292 291 291 291 291 290 291 290 292 291 290 290 291 291 291 292 292 290 290 290 290 291 291 292 292 291 291 292 292 296 299 298 298 298 297 297 296 296
287 287 288 288 287 286 287 287 287 287 286 286 286 286 286 287 287 287 287 288 289 290 290 290 291 291 291 291 291 290 290 290 290 291 292 291 291 291 291 291 291 290 290 290 290 290 290 291 291 290 291 291 292 293 296 296 297 297 295 295 295 295 295
Wind_Speed
4 3 3 3 3 3 5 5 5 6 7 6 6 6 6 6 6 6 6 6 6 5 6 5 5 5 5 5 6 6 6 6 6 7 7 6 7 4 8 8 8 9 8 6 4 6 4 3 3 5 5 8 8 10 10 10 10 10 10 9 9 7 6
3 3 3 3 4 4 5 5 6 6 6 6 6 6 6 7 7 6 5 5 5 5 4 5 5 6 7 6 7 7 7 6 6 7 7 6 5 7 4 7 8 9 8 6 4 3 5 5 6 5 6 5 8 10 10 9 10 9 9 9 8 8 7
3 3 3 4 4 4 6 6 5 5 5 6 6 6 7 7 7 6 6 6 6 5 5 5 5 6 6 6 7 8 8 9 5 4 4 5 5 6 6 6 5 6 5 5 5 5 5 5 7 5 6 7 9 9 9 10 12 10 10 9 9 9 8
4 4 4 4 4 6 6 6 5 5 5 5 6 6 7 8 7 7 7 7 6 6 5 6 5 5 6 6 7 7 7 7 6 5 5 6 6 6 7 6 7 7 7 8 8 7 7 5 5 8 7 7 10 9 10 11 10 11 11 10 9 9 9
4 4 4 4 4 4 4 5 4 5 6 5 6 6 8 9 8 8 8 8 7 7 7 6 5 5 5 5 5 6 6 6 6 6 6 6 6 6 7 7 7 7 7 7 6 7 8 8 8 7 7 5 6 8 4 7 9 10 10 11 10 11 10
5 4 4 4 4 4 4 5 6 5 5 6 6 7 9 10 8 8 9 9 8 8 7 7 6 6 5 6 6 6 6 7 7 7 6 5 5 6 6 7 7 7 8 8 9 7 7 7 7 8 8 6 8 6 6 6 7 8 9 11 10 10 10
6 6 6 6 5 5 5 6 6 6 6 6 7 7 8 8 7 7 8 9 8 9 10 10 9 8 7 6 6 6 6 6 6 7 6 7 7 8 7 7 7 8 8 8 9 8 8 7 8 9 7 6 8 9 3 6 6 5 7 9 10 9 10
7 6 6 6 7 7 7 7 7 7 6 6 7 6 8 7 8 7 9 8 9 9 9 9 8 9 9 8 6 6 5 5 6 6 7 7 8 7 7 7 7 6 6 7 8 8 8 9 8 7 8 8 7 8 7 6 6 11 9 7 10 10 12
6 6 6 6 6 7 7 7 8 8 7 7 7 7 8 7 8 7 8 8 8 9 8 8 8 8 8 8 8 9 8 7 8 8 7 7 8 8 8 7 7 9 8 8 8 8 8 8 9 8 8 10 9 7 6 7 7 9 11 8 9 12 11
7 7 7 8 7 7 7 7 7 7 8 8 7 7 8 8 8 8 7 8 9 8 9 10 9 9 9 7 7 8 9 9 9 9 8 8 8 8 8 9 8 8 9 9 9 9 10 9 9 9 10 11 9 10 7 8 9 9 7 11 8 10 14
6 7 7 8 7 8 7 7 7 7 8 7 7 7 8 9 9 10 8 8 9 9 9 9 9 9 9 6 7 7 7 8 8 9 8 9 9 8 8 8 8 9 7 8 8 9 8 9 10 9 10 10 9 11 9 9 8 7 7 8 9 7 12
7 8 7 8 8 8 9 9 9 8 8 8 8 9 9 9 9 9 9 8 9 10 9 10 10 9 10 7 9 7 8 9 7 8 9 9 9 9 9 9 8 8 8 8 9 9 9 9 9 8 9 9 10 12 11 9 9 5 6 8 9 9 9
8 8 8 9 9 10 10 10 10 10 9 8 8 9 9 10 10 10 9 9 10 10 11 10 11 11 10 8 8 8 9 10 10 9 9 9 8 10 10 9 9 8 8 8 9 8 8 8 9 10 10 10 11 11 11 11 11 9 6 7 8 9 10
9 8 10 10 10 9 9 9 9 8 8 10 9 8 9 9 10 10 10 10 11 11 12 12 11 10 10 11 11 11 11 11 11 10 10 11 10 10 11 11 11 10 9 9 8 7 8 9 9 9 9 9 8 8 10 10 10 9 4 2 4 7 9
8 8 9 9 9 9 9 9 9 9 10 9 9 9 10 9 9 10 10 11 11 12 12 12 12 11 11 11 11 9 10 11 11 11 10 11 12 10 10 11 12 12 9 10 9 9 9 9 9 8 9 9 9 9 8 9 9 8 11 4 5 4 5
8 9 9 9 10 9 8 8 8 9 8 8 8 9 9 9 9 10 10 11 11 11 12 12 12 12 12 12 11 11 11 11 10 10 11 11 11 11 12 11 11 12 11 10 10 9 9 10 10 9 10 9 10 10 9 10 9 9 10 8 6 7 7
9 8 9 7 8 8 7 7 7 8 8 8 9 9 9 8 10 10 10 11 12 12 13 13 12 12 13 12 12 12 11 10 10 10 10 10 10 10 11 13 12 12 13 14 12 9 8 8 9 8 9 9 9 10 10 10 11 8 8 11 7 8 8
8 8 8 7 8 7 7 7 7 8 8 9 9 9 8 9 10 11 10 11 12 12 13 13 13 14 13 12 12 12 12 11 10 10 10 9 10 10 10 11 13 13 11 12 13 10 8 10 9 8 9 8 8 8 8 8 10 10 9 10 7 6 6
8 8 7 7 7 7 7 8 8 8 8 8 8 9 9 10 10 11 11 11 11 13 13 13 13 13 13 13 12 11 11 11 11 11 10 10 10 10 9 11 11 11 11 12 13 12 11 11 10 10 10 9 8 8 9 8 8 8 10 10 7 6 6
7 7 7 7 7 7 8 8 9 9 8 8 9 10 10 11 10 10 11 11 12 12 13 12 13 14 15 14 12 12 12 12 10 9 9 9 11 12 12 11 11 10 10 11 13 13 14 14 11 11 10 10 9 9 9 9 9 9 10 10 9 7 6
6 6 6 6 7 7 7 7 8 7 8 9 9 10 10 9 9 10 10 10 11 11 11 11 13 15 14 13 13 12 11 11 10 10 12 11 11 10 11 11 11 12 11 11 11 12 13 13 13 12 8 9 9 8 8 8 8 9 9 9 9 8 7
6 6 7 7 8 8 8 7 7 7 7 8 7 8 8 8 8 9 9 10 10 10 9 10 11 14 14 14 13 12 11 9 11 11 12 12 12 12 12 11 11 12 16 20 20 16 15 14 12 12 11 8 8 9 9 8 8 8 8 8 9 7 7
7 7 7 8 8 8 8 7 8 8 8 8 8 7 8 8 8 9 9 9 9 8 9 8 18 23 18 14 12 10 9 10 12 12 12 12 13 13 12 12 12 21 22 22 19 19 19 18 18 15 13 12 8 7 8 8 8 8 8 9 10 8 8
7 8 7 7 7 8 8 7 8 8 8 9 9 8 8 8 9 9 10 10 9 8 8 12 24 20 21 22 15 10 10 10 12 11 11 12 12 14 13 13 12 16 18 18 18 21 19 19 17 18 20 18 15 10 7 9 9 9 9 9 9 9 9
8 7 7 7 7 7 7 8 8 8 8 9 8 7 10 9 8 9 8 9 10 9 8 19 21 21 21 22 19 11 9 9 10 11 11 12 11 12 13 13 13 11 12 16 17 15 18 20 19 19 19 19 17 18 15 11 8 8 9 9 9 10 9
7 7 7 7 6 7 7 8 9 9 9 7 7 9 9 9 10 9 9 10 11 10 9 19 21 22 21 21 21 15 9 10 10 12 11 12 12 12 13 13 14 12 12 23 17 14 16 17 20 20 18 18 15 15 16 17 15 11 8 10 10 10 10
7 7 6 7 7 8 8 8 7 7 7 8 8 9 9 9 9 9 9 9 9 10 11 19 22 22 22 21 20 14 10 10 11 12 12 13 12 12 13 13 13 14 15 16 14 16 17 15 14 14 12 10 9 11 13 15 16 17 13 9 10 11 10
7 7 7 7 7 8 8 8 8 7 7 7 8 8 8 9 8 8 10 9 9 9 10 20 20 22 22 22 19 12 11 10 10 11 12 13 13 13 13 12 13 13 15 15 13 20 18 17 15 12 12 12 10 9 7 8 9 9 10 10 8 9 9
7 6 7 7 8 8 8 8 8 7 6 7 7 7 8 7 9 9 9 10 10 11 10 18 20 21 21 21 17 11 10 11 11 12 12 13 13 13 12 14 14 15 16 15 20 26 22 18 15 12 12 10 10 8 7 4 3 3 3 6 7 5 4
7 7 7 8 8 8 8 8 8 6 8 7 7 8 7 7 7 8 10 10 10 10 10 16 19 20 20 21 14 10 11 10 11 12 12 13 12 13 12 16 14 14 15 15 22 25 24 23 12 11 10 11 10 6 7 2 5 7 7 4 4 6 7
7 7 7 7 7 6 6 6 7 5 6 7 8 7 6 7 7 7 8 10 10 9 10 14 19 19 20 21 16 11 11 10 11 12 12 12 12 12 14 23 21 16 15 15 24 24 24 20 13 14 12 10 10 6 3 5 3 5 6 8 10 9 10
6 6 7 7 6 7 7 6 4 4 5 5 6 5 6 7 7 8 8 8 14 12 10 12 18 19 20 20 16 10 12 11 11 12 12 12 12 12 12 13 20 20 18 19 24 24 25 21 14 15 15 13 6 6 5 3 4 5 6 7 8 7 9
6 6 7 6 7 6 4 5 7 6 6 6 6 6 6 7 8 8 8 8 9 9 11 11 14 20 20 20 20 12 10 13 13 13 13 13 13 13 13 12 14 21 24 23 24 25 24 24 15 13 14 13 11 8 5 7 8 6 8 8 7 7 8
6 6 5 5 5 6 6 6 6 6 6 6 6 8 9 8 8 8 8 8 8 9 9 11 13 19 20 20 20 16 9 11 11 11 11 13 12 12 12 12 11 20 24 23 23 24 24 23 21 14 13 13 14 12 8 6 8 11 8 8 7 8 8
5 5 5 6 6 6 5 5 5 5 6 6 8 8 8 8 7 7 7 7 8 9 10 14 12 15 19 19 19 20 12 12 12 10 12 12 12 11 12 12 12 19 22 22 22 23 25 23 24 13 16 21 25 21 11 8 8 9 9 8 8 10 10
4 4 5 5 5 6 4 5 5 6 6 7 8 8 8 7 7 7 8 8 8 9 10 9 15 13 17 19 19 18 18 14 16 10 10 12 12 11 11 12 13 22 22 23 23 24 24 25 18 17 22 23 23 23 15 10 9 10 10 10 11 11 11
4 4 4 3 5 5 5 5 5 6 6 7 7 7 7 6 6 8 8 9 9 9 9 9 11 16 15 18 17 19 18 18 17 12 9 9 10 11 11 12 15 22 22 22 23 22 23 23 18 23 23 23 22 19 13 12 10 10 11 12 12 10 9
Wind_Direction
71 72 23 32 29 28 34 30 25 26 18 16 5 360 0 356 350 343 335 326 323 311 306 288 271 269 272 272 274 278 262 250 248 249 261 249 229 221 215 231 228 227 218 221 197 202 198 246 233 207 219 210 209 214 212 215 211 208 207 205 202 192 189
45 43 26 23 29 15 40 23 30 22 17 8 7 3 1 2 359 348 336 331 329 325 320 312 301 293 290 295 295 290 289 263 243 240 239 247 213 240 211 231 233 233 228 226 229 191 213 219 252 223 226 205 215 218 216 213 215 211 207 203 198 192 186
44 42 41 36 28 20 39 24 14 17 8 10 0 5 5 3 360 359 355 346 336 326 323 313 310 304 296 292 295 301 303 306 300 287 248 246 236 243 227 235 232 241 237 219 212 218 228 220 244 237 220 203 215 221 209 213 211 208 209 204 201 199 193
51 53 54 38 22 37 38 17 12 1 11 12 1 5 8 1 1 2 358 354 351 344 331 322 316 310 307 303 302 301 299 298 295 281 250 237 237 241 243 239 240 236 230 224 221 218 219 210 218 245 243 219 221 227 215 212 210 207 206 207 196 199 197
44 56 62 56 34 53 44 30 9 14 16 6 6 6 8 360 2 3 1 358 1 352 342 328 320 315 310 302 297 296 298 291 286 280 272 261 242 238 236 238 242 236 242 245 237 222 218 224 217 236 236 233 246 235 210 194 209 210 205 209 196 201 196
37 38 42 44 24 44 40 38 23 18 14 11 5 7 4 359 360 8 6 6 2 355 349 345 336 329 326 318 311 305 299 303 302 301 287 262 253 250 250 243 243 241 233 236 245 239 227 225 219 235 237 219 236 237 214 177 208 212 207 209 200 201 201
40 36 33 30 20 30 30 37 31 22 15 16 3 11 357 354 1 9 17 8 4 2 8 0 353 345 339 328 324 316 312 301 294 290 284 275 265 257 253 258 247 238 234 235 236 235 232 226 227 226 234 225 227 238 200 197 206 195 220 215 204 200 203
36 34 32 28 27 30 25 29 26 23 19 9 8 3 359 353 1 13 18 7 6 8 11 4 355 354 350 336 334 324 314 300 298 293 292 294 286 272 269 273 278 269 260 248 243 238 228 228 230 228 224 233 230 228 227 210 203 208 216 200 202 201 204
34 34 32 27 30 32 32 29 26 23 18 7 7 2 4 360 0 12 17 11 7 8 4 360 358 357 348 350 350 344 339 339 324 315 306 298 295 291 286 280 276 277 272 263 256 250 241 232 232 231 225 229 233 236 216 225 204 220 209 203 203 206 197
36 35 31 27 23 28 33 30 29 25 19 17 8 6 5 6 3 6 17 12 10 6 5 6 358 355 353 356 349 345 350 344 334 325 313 301 291 279 272 268 264 261 260 261 254 246 244 237 231 228 223 226 223 231 223 225 217 212 203 195 203 206 202
36 34 33 30 23 26 25 24 22 23 19 14 14 7 6 9 6 6 2 12 4 3 4 1 359 357 353 353 349 345 338 336 332 330 324 313 302 288 279 276 269 266 258 252 252 250 244 241 237 229 227 224 217 225 222 229 233 210 207 193 204 197 197
32 33 31 32 30 29 26 21 21 17 15 14 12 9 11 10 5 1 357 5 4 359 358 360 357 356 356 349 348 338 339 338 333 326 323 319 312 303 297 292 284 275 270 265 258 254 250 246 244 236 232 225 222 223 222 227 238 231 189 193 208 205 184
36 37 38 38 38 34 30 25 20 18 15 12 12 10 13 14 9 3 2 6 4 3 1 0 359 354 350 348 341 338 338 338 331 324 321 321 316 312 306 299 294 289 282 275 264 250 246 244 245 246 237 232 225 219 219 221 227 233 212 197 198 193 193
35 38 41 42 42 37 33 29 24 17 14 18 7 8 11 14 11 8 9 11 9 7 4 2 360 354 353 347 343 340 339 339 335 328 325 321 321 317 313 307 300 291 288 283 279 264 250 246 242 237 239 240 235 223 219 221 227 230 255 238 193 197 196
38 37 41 38 37 33 30 29 21 18 24 12 10 7 16 15 15 14 15 13 11 8 5 1 356 353 349 344 341 339 336 335 331 326 326 323 324 322 315 309 306 300 288 283 283 278 265 256 246 242 234 230 229 224 214 225 229 218 229 220 231 217 180
37 37 39 36 35 31 27 25 24 24 20 15 12 13 9 18 18 18 18 15 11 7 3 358 354 350 346 342 337 333 328 325 322 320 321 318 317 318 315 310 305 305 300 288 284 278 274 265 257 248 243 230 229 224 215 216 223 220 219 232 205 201 192
37 34 37 31 34 30 27 25 23 29 24 19 21 12 8 13 22 21 19 14 12 6 2 357 352 350 346 340 334 326 322 319 316 315 311 309 309 312 313 311 307 307 307 302 292 283 273 261 251 248 244 238 234 229 220 215 219 222 216 231 212 205 198
37 34 33 27 29 27 28 26 24 27 24 24 21 18 13 21 25 23 19 14 9 6 360 356 352 350 344 337 332 325 322 319 314 310 304 298 304 305 305 305 304 306 305 303 302 288 278 268 262 253 246 238 233 225 220 215 217 215 220 227 224 216 202
40 37 33 30 27 27 28 29 27 27 26 25 20 22 18 26 26 23 20 16 12 7 1 358 354 348 342 337 331 326 323 320 314 310 309 305 298 301 297 300 301 303 305 305 306 304 292 277 268 259 250 243 234 225 223 219 216 220 221 232 227 211 203
41 39 34 31 30 31 31 29 29 28 24 25 26 24 19 25 25 22 20 16 12 7 2 360 358 351 345 340 333 329 329 329 317 313 308 297 322 324 311 301 301 305 310 314 318 323 320 308 284 265 254 249 239 230 226 219 217 219 221 225 228 220 205
35 33 31 28 29 28 27 27 27 26 26 28 27 24 21 15 19 20 17 16 11 9 359 1 2 356 347 341 337 334 332 329 324 334 341 342 337 334 337 332 328 324 321 323 324 318 321 320 316 295 263 246 242 236 228 224 218 217 216 217 220 213 205
41 35 31 30 28 26 23 21 21 23 26 27 25 24 21 18 14 15 13 12 10 5 2 2 3 357 349 347 343 338 335 324 345 349 345 346 345 345 342 336 330 328 328 325 320 317 315 315 314 310 293 252 242 235 230 227 221 217 218 218 221 211 206
43 39 35 34 32 29 26 23 24 26 27 25 23 20 19 18 17 17 9 6 6 4 3 2 355 353 355 353 346 336 327 345 355 351 350 347 345 345 344 341 333 334 333 329 324 320 318 316 316 316 302 286 256 238 235 231 227 221 218 219 221 214 203
44 39 32 36 33 30 25 24 27 28 28 25 23 19 19 18 18 13 14 10 4 3 3 2 354 353 354 356 357 343 346 352 356 355 354 352 348 345 341 342 338 335 336 334 331 325 319 315 315 317 317 301 274 256 235 231 226 218 218 220 220 213 213
46 37 37 34 33 30 28 28 29 27 25 23 18 19 22 17 15 11 10 10 12 6 2 2 356 357 356 354 356 350 348 357 358 356 355 354 349 345 344 342 341 338 336 336 331 326 323 318 314 311 310 306 291 264 251 239 233 227 219 220 219 217 214
47 41 36 35 34 34 32 32 28 23 23 15 17 24 17 15 15 9 10 9 11 7 5 3 359 359 358 356 352 352 354 357 360 358 354 353 347 347 348 346 343 341 339 339 336 329 325 318 311 306 300 297 288 265 255 251 249 240 224 227 222 222 217
51 42 38 38 39 37 36 33 27 22 17 17 21 19 15 15 11 10 9 6 3 6 8 3 1 0 360 357 352 349 1 358 1 1 359 355 348 349 346 346 343 342 339 336 333 333 327 314 308 301 298 294 286 273 246 242 242 245 250 237 221 223 223
52 44 41 42 42 40 36 30 28 20 21 19 17 12 9 11 8 6 5 3 5 4 4 1 2 1 0 358 351 355 2 360 1 2 1 358 355 352 346 348 347 343 336 332 334 336 327 316 306 292 286 282 272 259 248 236 227 221 222 238 247 231 232
52 46 44 44 44 38 36 31 27 12 18 17 14 13 14 13 9 5 3 4 8 5 358 1 3 2 1 359 353 2 0 2 2 1 360 2 358 355 350 354 352 348 340 333 337 335 330 320 303 285 280 274 270 255 245 241 352 324 272 249 250 273 303
57 50 45 47 42 37 33 26 24 17 24 18 15 14 7 5 2 7 10 8 8 3 359 360 3 3 3 1 0 2 2 360 2 2 1 360 357 355 353 357 356 348 340 339 340 338 337 335 323 306 288 283 273 259 249 4 27 22 7 9 350 330 2
60 52 49 47 42 39 35 33 30 14 28 14 18 4 360 7 8 9 11 9 8 4 359 358 3 4 6 5 5 6 3 3 1 4 359 360 359 355 353 355 359 354 343 342 343 346 347 347 348 345 322 292 285 260 22 21 41 34 37 52 51 60 45
60 57 54 44 42 40 32 30 5 12 22 22 19 2 8 13 10 15 12 8 10 9 359 358 2 4 7 8 9 8 8 8 5 5 1 360 357 356 350 347 352 354 352 347 349 355 355 358 359 356 345 334 339 48 13 4 49 43 41 46 30 30 26
56 55 52 47 42 41 28 29 20 21 20 21 18 16 14 17 16 10 1 4 5 2 360 359 359 2 7 9 10 10 9 13 11 5 6 5 0 358 354 350 348 354 350 353 357 359 359 5 5 356 8 8 360 14 10 33 40 56 58 57 50 45 43
60 51 48 50 46 42 33 31 22 26 20 16 26 25 21 14 12 4 359 357 359 3 2 1 356 2 5 8 10 13 11 12 3 7 7 6 3 357 354 352 348 352 351 355 360 3 3 5 12 11 13 13 358 344 359 44 43 50 55 48 50 49 42
52 56 46 45 46 42 27 30 31 25 21 25 28 27 20 14 8 359 353 355 3 1 358 360 1 359 3 5 7 12 16 12 6 7 7 11 2 1 357 353 354 351 353 360 1 6 8 9 14 19 11 23 12 3 11 32 46 50 52 46 47 45 38
46 42 45 42 49 43 21 33 27 28 29 26 29 27 19 10 6 4 4 5 3 4 1 354 1 1 1 3 5 7 9 9 4 10 13 11 6 359 356 355 352 355 1 2 6 7 12 11 14 14 16 24 26 9 10 24 32 47 50 48 45 43 38
50 39 40 39 47 40 27 23 36 32 27 31 27 27 17 5 11 18 12 4 5 4 1 357 354 1 1 2 2 5 5 7 9 11 13 12 6 3 2 1 358 359 4 7 8 9 10 13 12 14 19 22 29 22 19 18 25 34 47 46 43 40 35